Location: Newark
(48.8833°N, 0.9236°W)
Time: 20:32:27
(UTC+00:00)

Tiros 1 despin weight - Pass Details

Date: 25 November 2019
Orbit: 594 x 642 km, 48.2° (Epoch: 14 December)

Event Time Altitude Azimuth Distance (km) Brightness Sun altitude
Rises 17:34:11 0° 277° (W) 2,842 ? -12.9°
Reaches altitude 10° 17:37:48 10° 247° (WSW) 1,944 ? -13.5°
Maximum altitude 17:39:32 12° 223° (SW) 1,810 ? -13.7°
Drops below altitude 10° 17:41:17 10° 200° (SSW) 1,949 ? -14.0°
Sets 17:44:55 0° 170° (S) 2,861 ? -14.6°
